Weather History for KASW - August, 2011

Change the Weather History Date:

Sunday, August 7, 2011

  Actual Average Record
Temperature  
Mean Temperature 74 °F -  
Max Temperature 82 °F 81 °F 92 °F (1968)
Min Temperature 66 °F 59 °F 45 °F (1957)
Cooling Degree Days 9    
Growing Degree Days 24 (Base 50)    
Moisture  
Dew Point 75 °F    
Average Humidity 87    
Maximum Humidity 100    
Minimum Humidity 66    
Precipitation  
Precipitation 0.22 in - - ()
Sea Level Pressure  
Sea Level Pressure 29.79 in    
Wind  
Wind Speed 2 mph (WSW)    
Max Wind Speed 13 mph    
Max Gust Speed 17 mph    
Visibility 5 miles    
Events Fog , Rain    
Averages and records for this station are not official NWS values.
T = Trace of Precipitation, MM = Missing Value Source: NWS Daily Summary

Daily Weather History Graph

Daily Weather History Graph

Search for Another Location

Airport or City:

Trip Planner

Search our weather history database for the weather conditions in past years. The results will help you decide how hot, cold, wet, or windy it might be!

Date:

Astronomy

Aug. 07, 2011 Rise Set
Actual Time 6:44 AM EDT 8:53 PM EDT
Civil Twilight 6:13 AM EDT 9:23 PM EDT
Nautical Twilight 5:36 AM EDT 10:01 PM EDT
Astronomical Twilight 4:55 AM EDT 10:41 PM EDT
Moon 4:06 PM EDT (8/7) 12:45 AM EDT (8/7)
Length of Visible Light 15h 09m
Length of Day
14h 09m
Waxing Gibbous, 63% of the Moon is Illuminated
Aug 7
Waxing Gibbous
Aug 13
Full
Aug 21
Last Quarter
Aug 28
New
Sep 4
First Quarter

Hourly Weather History & Observations

Time (EDT) Temp. Heat Index Dew Point Humidity Pressure Visibility Wind Dir Wind Speed Gust Speed Precip Events Conditions
12:15 AM 71.6 °F - - N/A% 29.81 in 1.8 mi Calm Calm - N/A   Mist
12:35 AM 73.4 °F - - N/A% 29.81 in 3.0 mi Calm Calm - N/A   Clear
12:55 AM 71.6 °F - - N/A% 29.81 in 1.0 mi Calm Calm - N/A   Mist
1:15 AM 71.6 °F - - N/A% 29.81 in 2.0 mi Calm Calm - N/A   Clear
1:35 AM 69.8 °F - - N/A% 29.81 in 2.5 mi Calm Calm - N/A   Clear
1:55 AM 71.6 °F - - N/A% 29.81 in 3.0 mi Calm Calm - N/A   Clear
2:15 AM 69.8 °F - - N/A% 29.81 in 1.8 mi Calm Calm - N/A   Mist
2:35 AM 69.8 °F - - N/A% 29.81 in 0.5 mi Calm Calm - N/A Fog Fog
2:55 AM 69.8 °F - - N/A% 29.80 in 1.5 mi Calm Calm - N/A   Scattered Clouds
3:15 AM 69.8 °F - - N/A% 29.79 in 0.2 mi Calm Calm - N/A Fog Fog
3:35 AM 68.0 °F - - N/A% 29.80 in 0.5 mi Calm Calm - N/A Fog Fog
3:55 AM 68.0 °F - - N/A% 29.80 in 0.5 mi Calm Calm - N/A Fog Fog
4:15 AM 68.0 °F - - N/A% 29.80 in 0.2 mi Calm Calm - N/A Fog Fog
4:35 AM 68.0 °F - - N/A% 29.80 in 1.5 mi West 3.5 mph - N/A   Scattered Clouds
4:55 AM 68.0 °F - - N/A% 29.79 in 1.2 mi Calm Calm - N/A   Mist
5:15 AM 68.0 °F - - N/A% 29.79 in 2.0 mi Calm Calm - N/A   Clear
5:35 AM 68.0 °F - - N/A% 29.79 in 1.5 mi Calm Calm - N/A   Mist
5:55 AM 68.0 °F - - N/A% 29.79 in 1.0 mi Calm Calm - N/A   Mist
6:35 AM 68.0 °F - - N/A% 29.81 in 0.2 mi Calm Calm - N/A Fog Fog
6:55 AM 66.2 °F - - N/A% 29.83 in 0.2 mi Calm Calm - N/A Fog Fog
7:15 AM 66.2 °F - - N/A% 29.84 in 0.2 mi West 3.5 mph - N/A Fog Fog
7:35 AM 68.0 °F - - N/A% 29.85 in 2.0 mi Calm Calm - N/A   Clear
7:55 AM 69.8 °F - - N/A% 29.84 in 1.8 mi Calm Calm - N/A   Mist
8:15 AM 69.8 °F - - N/A% 29.82 in 3.0 mi Calm Calm - N/A   Clear
8:35 AM 71.6 °F - 71.6 °F 100% 29.81 in 7.0 mi Calm Calm - N/A   Clear
8:55 AM 71.6 °F - - N/A% 29.78 in 5.0 mi SE 3.5 mph - N/A   Haze
9:15 AM 73.4 °F - - N/A% 29.78 in 7.0 mi South 3.5 mph - N/A   Clear
9:55 AM 73.4 °F - 73.4 °F 100% 29.79 in 7.0 mi Calm Calm - N/A   Clear
10:15 AM 75.2 °F - 75.2 °F 100% 29.81 in 7.0 mi SW 3.5 mph - N/A   Clear
10:35 AM 77.0 °F - 71.6 °F 83% 29.81 in 10.0 mi WSW 5.8 mph - N/A   Clear
11:15 AM 78.8 °F - 78.8 °F 100% 29.80 in 7.0 mi SW 5.8 mph - N/A   Clear
11:35 AM 80.6 °F 89.3 °F 80.6 °F 100% 29.80 in 5.0 mi West 9.2 mph - N/A   Clear
11:55 AM 82.4 °F 96.1 °F 82.4 °F 100% 29.81 in 7.0 mi WNW 9.2 mph - N/A   Mostly Cloudy
12:15 PM 82.4 °F 96.1 °F 82.4 °F 100% 29.80 in 7.0 mi WSW 5.8 mph - N/A   Mostly Cloudy
12:35 PM 80.6 °F 89.3 °F 80.6 °F 100% 29.78 in 7.0 mi WSW 9.2 mph - N/A   Scattered Clouds
12:55 PM 80.6 °F 89.3 °F 80.6 °F 100% 29.79 in 7.0 mi West 6.9 mph - N/A   Scattered Clouds
1:15 PM 78.8 °F - 78.8 °F 100% 29.79 in 7.0 mi West 5.8 mph - N/A   Scattered Clouds
1:35 PM 78.8 °F - 78.8 °F 100% 29.80 in 7.0 mi WNW 9.2 mph - N/A Rain Rain
1:55 PM 73.4 °F - 73.4 °F 100% 29.81 in 7.0 mi SSW 4.6 mph - 0.11 in Rain Light Rain
2:15 PM 71.6 °F - - N/A% 29.80 in 2.5 mi North 6.9 mph 17.3 mph 0.11 in Rain Heavy Rain
2:35 PM 73.4 °F - - N/A% 29.79 in 10.0 mi ESE 3.5 mph - 0.11 in   Mostly Cloudy
2:55 PM 73.4 °F - - N/A% 29.77 in 10.0 mi Calm Calm - 0.11 in   Mostly Cloudy
3:15 PM 77.0 °F - - N/A% 29.76 in 10.0 mi Calm Calm - N/A   Scattered Clouds
3:35 PM 78.8 °F - 78.8 °F 100% 29.76 in 10.0 mi WSW 5.8 mph - N/A   Clear
4:15 PM 82.4 °F 92.4 °F 78.8 °F 89% 29.75 in 10.0 mi SW 6.9 mph - N/A   Clear
4:35 PM 82.4 °F 92.4 °F 78.8 °F 89% 29.75 in 10.0 mi SW 5.8 mph - N/A   Clear
4:55 PM 82.4 °F 94.0 °F 80.6 °F 94% 29.74 in 10.0 mi West 9.2 mph - N/A   Clear
5:15 PM 82.4 °F 86.3 °F 69.8 °F 66% 29.74 in 10.0 mi WSW 12.7 mph 16.1 mph N/A   Scattered Clouds
5:35 PM 82.4 °F 86.3 °F 69.8 °F 66% 29.74 in 10.0 mi West 10.4 mph - N/A   Scattered Clouds
5:55 PM 82.4 °F 86.3 °F 69.8 °F 66% 29.74 in 10.0 mi West 10.4 mph - N/A   Scattered Clouds
6:15 PM 82.4 °F 86.3 °F 69.8 °F 66% 29.74 in 10.0 mi West 12.7 mph - N/A   Scattered Clouds
6:35 PM 82.4 °F 86.3 °F 69.8 °F 66% 29.74 in 10.0 mi West 12.7 mph - N/A   Scattered Clouds
6:55 PM 82.4 °F 86.3 °F 69.8 °F 66% 29.73 in 10.0 mi West 9.2 mph - N/A   Clear
7:15 PM 82.4 °F 86.3 °F 69.8 °F 66% 29.73 in 10.0 mi West 6.9 mph - N/A   Scattered Clouds
7:35 PM 80.6 °F 83.9 °F 69.8 °F 70% 29.74 in 10.0 mi West 5.8 mph - N/A   Clear
8:15 PM 80.6 °F 84.6 °F 71.6 °F 74% 29.74 in 10.0 mi WSW 3.5 mph - N/A   Scattered Clouds
8:35 PM 78.8 °F - 69.8 °F 74% 29.75 in 10.0 mi West 5.8 mph - N/A   Clear
8:55 PM 78.8 °F - 69.8 °F 74% 29.74 in 10.0 mi WSW 5.8 mph - N/A   Clear
9:15 PM 78.8 °F - 69.8 °F 74% 29.74 in 10.0 mi WSW 5.8 mph - N/A   Scattered Clouds
9:35 PM 78.8 °F - 69.8 °F 74% 29.75 in 10.0 mi WNW 8.1 mph - N/A   Scattered Clouds
9:55 PM 71.6 °F - 66.2 °F 83% 29.75 in 10.0 mi NE 5.8 mph - N/A   Scattered Clouds
10:15 PM 71.6 °F - 64.4 °F 78% 29.75 in 10.0 mi NW 6.9 mph - N/A   Scattered Clouds
10:35 PM 69.8 °F - 64.4 °F 83% 29.75 in 10.0 mi NW 4.6 mph - N/A   Scattered Clouds
10:55 PM 69.8 °F - 62.6 °F 78% 29.76 in 10.0 mi NW 5.8 mph - N/A   Clear
11:15 PM 69.8 °F - 62.6 °F 78% 29.75 in 10.0 mi NNW 3.5 mph - N/A   Clear
11:35 PM 69.8 °F - 62.6 °F 78% 29.76 in 10.0 mi Calm Calm - N/A   Clear
11:55 PM 68.0 °F - 64.4 °F 88% 29.76 in 10.0 mi Calm Calm - N/A   Clear